Presure
169 159 148 82 68 93 186 167 193 96 94 142 95 101 115 88 156 123 144 108 84 125 147 95 102 109 140 94 141 127 141 99 139 102 143 100 116 117 136 123 117 109 129 129 129 130 110 124 110
181 120 166 142 182 173 118 153 157 75 88 87 123 94 101 139 148 122 91 91 83 93 95 119 91 96 87 131 144 92 115 139 114 109 104 121 127 113 98 99 135 123 131 137 102 118 117 120 121
183 189 166 179 150 183 196 91 147 158 103 90 96 92 90 93 115 159 117 102 96 141 105 91 100 94 86 133 113 113 96 93 122 138 129 108 125 106 108 118 111 123 118 123 111 121 127 126 139
195 181 184 172 144 159 134 203 77 174 129 181 105 97 94 89 92 90 95 85 93 86 96 95 117 98 103 98 96 97 107 152 152 116 139 136 139 119 133 133 130 132 131 121 127 122 117 129 118
173 203 189 192 158 174 170 219 198 96 169 158 178 163 125 103 91 98 122 144 167 97 97 116 102 115 93 95 100 100 98 104 105 144 121 142 103 126 127 139 118 115 131 136 141 135 141 130 127
182 200 199 184 185 136 128 144 130 170 141 76 82 182 168 112 103 145 97 125 127 132 117 90 130 116 103 99 96 115 99 92 95 157 130 99 109 141 127 119 125 111 112 132 109 102 123 128 107
242 227 204 177 88 186 178 106 200 185 113 154 151 125 194 159 117 157 107 103 133 110 142 167 111 104 104 109 104 120 145 92 95 106 97 130 147 141 102 125 143 142 140 130 137 127 103 94 131
239 223 226 192 189 205 176 170 194 104 178 172 77 137 67 162 85 76 135 101 104 88 93 83 157 150 95 90 101 103 109 109 138 107 113 117 113 148 142 116 91 133 111 115 131 127 135 130 132
258 216 220 210 186 156 159 165 164 193 188 209 162 168 84 82 142 111 149 161 71 115 109 135 87 105 110 108 109 91 118 147 152 112 131 117 136 122 109 147 119 134 129 149 126 128 146 136 145
260 237 214 197 214 198 175 177 178 178 192 187 189 161 177 81 68 78 164 109 117 76 115 82 86 150 155 159 120 135 96 141 141 115 87 122 140 137 140 157 138 137 148 138 148 124 120 93 117
264 211 204 235 205 213 207 176 180 172 185 201 181 169 170 184 86 116 174 124 87 79 82 83 77 90 160 153 113 114 116 111 81 128 119 122 155 149 147 125 131 128 129 134 141 136 131 124 101
270 248 205 205 223 200 213 186 179 178 174 188 202 186 176 159 175 163 183 173 155 83 73 132 114 82 93 158 82 84 139 166 115 126 124 124 132 141 146 150 151 152 160 131 129 126 118 84 89
252 248 244 203 194 186 191 144 193 128 175 181 190 190 105 169 152 173 139 85 122 77 77 152 105 82 79 78 78 124 80 78 104 86 77 83 124 112 87 131 148 87 147 121 141 113 159 106 146
273 246 248 211 189 175 189 204 156 188 177 185 188 207 206 189 171 154 181 178 128 79 78 78 154 124 100 77 139 113 77 87 78 161 110 146 152 139 152 130 151 77 147 95 145 120 148 158 155
278 288 249 225 207 180 187 187 197 172 167 186 181 204 205 207 192 171 157 172 157 171 179 172 176 131 87 87 150 82 84 74 85 127 158 161 119 104 100 92 143 142 151 152 121 111 154 153 151
281 276 273 219 222 176 183 191 183 193 166 190 184 179 201 175 197 179 177 156 171 158 158 161 174 138 110 111 163 156 156 155 92 148 81 84 87 131 94 93 165 158 154 149 150 153 166 169 169
280 277 274 249 247 207 186 193 195 186 193 182 196 185 182 208 185 197 180 174 168 166 180 153 160 179 175 184 190 178 164 156 152 148 146 141 140 143 156 167 164 157 168 159 160 162 155 150 157
273 281 276 278 241 255 205 216 197 206 218 188 206 187 185 192 208 186 195 184 169 168 169 146 151 159 170 144 175 179 175 181 168 158 151 153 147 154 155 150 140 130 144 140 139 164 142 137 150
279 280 284 284 283 248 253 216 203 210 207 221 197 197 182 184 186 186 205 192 190 180 181 170 169 169 143 149 146 148 127 127 176 176 170 180 178 161 154 153 153 166 151 152 153 162 170 144 169
282 276 277 284 291 290 267 236 214 206 185 165 162 180 192 185 190 191 156 207 196 192 178 184 173 159 161 161 158 175 190 163 177 167 183 181 185 186 189 188 188 176 165 159 164 163 159 154 160
274 271 271 276 272 275 283 272 234 223 200 164 189 189 166 188 193 187 198 202 203 205 190 186 194 182 165 168 166 147 145 153 154 174 173 164 183 182 187 181 185 180 182 165 190 184 178 173 180
270 270 269 271 267 276 281 282 294 222 226 202 170 168 169 171 193 193 190 203 160 170 219 182 192 184 180 175 133 156 167 157 153 157 153 152 161 174 176 180 173 174 156 178 175 164 163 177 178
281 271 268 269 271 302 298 294 268 264 226 198 213 260 174 171 174 200 206 184 202 195 169 220 205 181 177 186 184 174 168 167 175 177 169 165 163 169 172 173 158 171 160 161 157 184 162 130 171
308 286 264 284 279 298 337 300 293 283 230 232 218 262 178 182 179 180 179 201 186 176 166 155 187 212 198 189 189 192 182 172 169 168 166 167 168 169 168 169 169 179 178 148 136 153 163 163 166
287 284 301 270 272 275 320 355 287 275 259 240 207 225 191 198 186 184 177 150 207 157 193 191 212 186 183 210 200 191 187 181 179 172 177 178 177 178 180 180 178 177 156 164 133 136 174 175 162
323 323 316 289 271 258 310 337 322 278 276 256 242 204 210 186 196 200 192 177 188 167 180 201 102 167 196 194 219 210 192 191 188 184 186 185 178 173 174 169 170 177 178 178 176 145 166 175 173
315 290 322 293 313 274 277 290 332 299 275 274 256 238 222 211 208 200 204 192 178 198 186 176 218 214 173 171 180 181 154 205 194 189 188 183 180 183 181 178 177 180 179 185 179 179 191 175 181
297 304 315 323 317 279 269 271 298 308 280 278 273 264 261 232 232 234 218 208 195 187 204 204 178 197 172 168 166 181 183 187 159 157 205 193 182 188 189 186 186 185 146 186 182 181 187 190 184
296 292 310 315 307 314 274 282 289 312 287 282 278 272 265 259 251 244 238 219 215 204 196 208 205 208 237 173 174 161 163 181 220 225 199 204 208 175 199 194 193 195 194 193 191 194 175 193 190
298 295 292 302 322 323 319 280 263 257 307 305 279 279 271 267 260 255 252 242 230 216 209 196 222 217 193 214 218 179 174 175 171 169 162 163 154 152 164 151 172 202 204 175 190 170 205 201 200
Wind_Speed
65 59 54 33 3 17 70 67 83 39 29 60 28 29 36 11 50 38 42 24 14 45 49 14 20 26 39 15 41 35 42 20 41 22 38 19 26 28 31 28 25 23 30 30 30 30 31 32 31
70 40 60 49 62 59 35 60 61 14 27 19 51 27 32 54 57 37 20 22 13 19 18 36 15 19 11 44 46 13 28 43 28 25 26 29 33 25 21 22 34 30 33 34 28 34 33 35 32
71 74 64 65 52 65 78 25 54 64 31 18 36 22 25 22 41 60 34 28 22 46 27 18 24 18 13 38 26 29 19 15 30 44 36 31 35 27 30 32 30 34 32 33 32 35 36 38 41
75 71 69 61 55 66 46 90 27 72 49 83 45 38 31 24 26 23 27 18 23 16 25 23 36 22 24 20 20 22 27 44 46 34 43 43 44 36 41 41 40 40 39 35 37 37 37 43 39
69 76 72 69 65 73 72 92 80 27 73 69 81 75 53 42 24 33 47 52 59 29 29 36 28 34 20 21 24 25 23 27 26 46 38 47 23 40 41 46 35 34 42 43 43 43 45 45 45
71 78 75 66 72 61 51 48 47 77 64 13 19 78 77 47 39 61 33 47 47 46 39 20 42 36 29 25 22 35 25 19 22 47 44 24 30 48 43 37 42 36 37 44 37 30 43 46 35
99 89 77 71 21 84 68 58 87 84 43 69 60 49 82 69 44 69 39 42 50 41 58 58 37 29 31 33 30 41 49 22 24 32 24 45 50 52 26 43 51 50 49 46 47 46 32 26 50
99 88 90 80 82 90 69 73 83 26 77 78 31 60 5 74 25 15 62 36 42 20 22 17 62 61 23 20 31 33 37 37 43 36 38 40 40 54 53 42 24 49 38 43 49 49 51 51 52
108 87 87 85 80 66 66 74 80 88 87 97 69 80 32 32 65 49 73 72 16 49 44 50 20 39 39 39 40 23 45 55 53 41 44 42 53 45 38 55 42 51 50 54 51 52 55 54 56
106 97 84 85 95 83 76 82 83 79 88 86 84 78 86 37 9 24 77 44 48 18 43 21 23 64 65 63 49 50 26 58 55 36 23 36 54 55 56 52 56 55 57 54 58 52 51 36 50
106 82 86 105 86 86 85 84 83 79 81 89 76 79 82 89 44 45 84 54 33 28 25 25 19 27 66 58 50 49 50 44 19 48 49 47 51 52 57 52 57 56 57 58 60 59 59 56 42
105 101 92 85 91 79 87 83 86 84 75 81 89 84 84 73 82 76 90 85 74 33 21 60 48 27 34 67 26 26 55 63 50 44 54 56 59 59 60 58 58 56 54 61 55 59 56 37 37
97 101 105 85 80 74 74 66 90 54 75 77 81 85 54 82 68 81 67 42 62 30 32 73 45 31 30 31 28 53 26 26 39 34 23 32 50 44 34 50 61 30 59 47 54 55 58 39 64
102 101 105 88 81 76 78 87 65 75 79 80 81 91 93 90 82 71 88 86 63 40 38 38 74 58 44 33 63 51 28 39 27 64 39 53 56 63 63 54 62 29 63 47 63 56 63 61 62
97 93 104 96 88 77 79 82 82 76 74 80 78 90 90 92 90 83 75 82 74 83 87 84 84 64 43 41 71 40 45 24 44 56 63 63 52 46 53 45 67 65 65 64 56 57 64 64 65
95 100 100 92 93 76 78 78 79 78 75 81 79 77 87 76 89 84 86 75 83 76 76 75 81 70 61 61 79 72 70 69 35 66 28 44 48 56 55 55 66 66 67 67 67 66 64 64 65
95 98 100 102 107 88 77 76 83 78 77 82 82 79 76 90 81 88 86 87 86 84 88 68 73 81 80 80 82 84 77 72 70 70 71 67 67 67 69 72 71 69 69 67 66 66 66 67 66
94 94 96 100 95 101 77 81 80 80 85 77 85 77 76 79 92 83 89 92 85 84 82 65 67 70 76 64 77 80 80 80 79 76 72 74 73 74 73 70 65 64 64 62 64 68 68 67 71
93 95 97 100 101 93 96 79 76 74 73 86 77 80 77 79 81 85 93 89 94 90 90 82 81 79 65 63 64 66 62 58 85 85 81 83 84 80 77 75 74 79 69 70 67 69 72 71 72
87 85 87 87 90 93 91 85 82 76 75 57 80 78 80 80 80 84 76 94 91 95 88 90 84 74 75 72 70 74 77 79 83 81 80 81 80 79 73 79 82 84 78 72 74 74 72 73 76
80 81 84 82 84 89 90 92 85 81 75 82 85 84 78 80 82 84 88 90 90 92 93 92 94 89 78 79 75 71 72 76 75 83 81 83 82 83 85 86 84 85 84 72 80 79 81 81 84
75 78 77 78 80 83 88 83 81 83 85 81 81 78 78 79 82 81 85 88 77 80 95 89 94 92 86 84 67 77 84 78 78 81 78 76 82 91 86 83 81 81 69 83 80 73 74 83 86
71 72 74 77 81 85 84 82 82 87 83 79 81 91 79 79 78 81 88 81 86 88 80 93 94 88 86 93 89 85 86 86 88 90 88 89 86 86 84 85 76 84 77 73 70 83 74 69 83
54 63 70 70 74 70 67 77 79 81 87 85 83 89 80 80 81 82 76 89 86 83 82 76 85 93 97 95 91 92 92 90 90 90 90 89 88 87 85 85 83 88 86 74 76 76 79 81 81
55 61 61 69 68 66 61 58 72 80 85 88 80 86 82 83 83 85 77 66 93 68 86 89 93 86 85 95 97 96 95 94 94 91 95 96 98 98 99 96 93 92 78 82 75 79 85 84 82
38 44 53 63 66 70 61 54 62 78 81 88 91 82 84 83 84 88 83 84 85 85 86 90 48 81 86 82 96 98 97 98 98 97 100 100 96 96 96 90 90 94 94 91 89 80 81 90 89
41 55 49 61 57 67 66 64 59 67 78 81 87 90 87 87 88 89 88 83 85 90 90 87 92 92 84 85 86 85 81 98 100 100 100 98 96 97 96 97 97 98 96 100 94 96 102 92 95
51 52 51 51 55 64 66 69 62 65 76 79 80 83 84 90 91 90 91 85 87 92 92 92 87 90 85 86 85 87 89 91 85 83 103 101 95 101 101 99 99 100 73 101 98 97 101 102 98
52 53 47 49 55 54 67 67 67 59 71 73 77 78 80 85 88 91 90 87 88 92 93 92 91 90 94 89 90 87 88 90 97 101 97 100 104 92 102 102 100 102 102 102 101 103 95 103 102
51 52 54 50 47 50 52 64 70 71 65 66 73 75 78 81 85 86 85 83 86 91 93 92 92 94 93 95 96 93 90 92 92 92 92 90 84 84 90 82 93 102 103 95 99 94 106 104 105
Wind_Direction
231 234 235 247 235 242 219 223 217 233 226 231 235 231 228 244 225 231 227 229 223 236 235 241 250 254 237 270 243 260 239 294 247 288 247 295 271 275 266 278 285 295 282 285 289 290 303 298 309
226 241 228 236 224 223 228 223 226 248 235 213 230 231 226 233 230 227 224 227 230 240 243 240 239 239 227 249 233 273 266 245 268 276 285 268 267 280 307 304 275 285 283 282 307 295 300 300 304
225 224 228 224 228 221 219 239 221 223 226 226 228 221 229 224 228 229 231 237 243 232 236 243 240 249 238 240 253 257 279 274 261 254 260 284 270 292 290 283 291 283 288 289 297 296 297 298 294
222 225 224 224 227 225 223 219 229 219 222 222 229 228 225 233 235 231 238 228 235 233 244 250 240 249 250 252 259 265 272 241 242 275 249 257 258 278 270 274 280 282 284 288 291 294 298 297 301
228 222 222 219 225 222 225 221 219 238 222 227 224 228 239 229 228 239 236 232 230 246 252 240 245 245 254 257 259 263 269 271 265 249 269 253 282 273 275 268 287 293 282 282 281 288 288 296 299
223 222 219 218 219 233 226 221 223 221 226 253 229 223 228 229 236 230 237 236 236 235 239 231 231 242 250 254 261 253 267 269 275 250 264 281 278 262 276 281 283 295 297 285 302 301 296 294 304
217 219 216 217 225 223 221 238 218 223 230 226 222 229 224 228 226 228 233 237 235 243 236 234 243 245 256 256 257 251 245 269 277 272 279 260 253 262 282 279 268 272 276 285 282 291 298 306 293
218 218 215 214 216 220 215 219 221 220 224 225 248 229 275 226 245 249 238 237 240 213 222 227 237 237 251 254 263 264 267 269 255 273 275 279 280 256 264 287 285 277 294 296 286 290 286 291 291
215 216 215 216 217 222 218 222 221 221 222 220 222 223 231 240 230 235 235 231 251 241 244 235 230 256 254 257 260 263 262 246 246 274 265 278 264 281 285 264 277 278 284 275 289 289 280 286 285
214 215 214 215 217 215 213 219 222 222 222 223 219 224 228 235 192 249 231 238 242 255 238 244 247 243 244 245 254 249 262 250 254 257 275 262 261 267 266 270 272 274 271 280 276 292 300 307 302
213 210 212 219 214 217 212 217 220 222 224 224 221 223 229 225 238 229 231 242 249 254 251 247 265 249 245 246 258 260 263 266 272 258 275 272 259 266 263 275 278 283 284 281 278 282 289 297 298
211 210 215 213 217 213 214 217 220 221 222 225 225 224 227 233 230 232 230 233 238 249 263 246 252 261 259 247 259 258 254 253 267 262 271 274 271 264 262 264 266 272 273 282 288 290 293 301 301
211 211 215 214 212 210 210 230 222 230 223 225 227 226 242 231 234 232 235 247 240 257 266 241 249 253 266 272 270 256 267 270 263 273 281 283 267 271 284 269 268 291 271 280 278 288 281 289 285
208 211 214 215 213 215 210 216 229 217 222 226 227 226 226 229 231 237 232 233 241 250 257 264 243 247 253 263 253 256 273 266 273 259 273 263 264 270 264 270 268 290 273 295 276 284 280 280 282
207 208 214 218 214 216 213 214 220 217 226 224 226 227 228 228 230 231 238 236 239 239 239 241 242 249 255 253 252 261 261 273 269 264 263 264 272 277 280 287 274 275 273 275 281 291 279 281 282
207 209 211 217 220 218 217 212 220 219 224 225 226 229 230 227 230 231 233 239 237 240 243 243 243 251 259 258 251 255 257 260 272 263 275 280 280 272 281 284 272 272 273 277 279 280 282 284 286
209 213 212 217 221 218 218 212 218 220 221 227 226 228 229 231 232 231 233 235 237 238 239 247 246 245 249 244 244 251 257 260 262 264 266 267 268 269 270 270 271 273 275 277 278 279 281 284 284
212 213 215 215 225 225 221 221 219 221 223 226 229 228 230 233 234 233 232 233 238 239 240 247 249 248 248 253 250 252 256 257 260 263 264 265 267 268 269 272 274 274 278 281 282 280 283 285 283
212 213 215 216 219 226 226 222 223 224 223 228 228 230 227 230 236 234 238 234 234 238 240 243 244 246 251 250 254 257 264 263 259 261 263 265 266 268 271 272 272 275 277 279 280 281 283 281 285
215 219 222 224 224 224 227 228 226 221 221 223 229 227 230 231 232 235 236 239 235 237 242 242 244 249 250 251 251 250 252 256 257 260 261 263 264 265 265 266 266 272 276 280 282 283 282 281 283
215 218 222 224 224 228 228 228 228 229 222 226 230 230 229 230 232 234 239 240 240 238 240 243 243 245 249 249 250 253 256 258 259 255 257 263 261 262 263 266 268 272 274 278 279 283 284 284 286
215 220 223 223 227 228 231 231 229 229 228 224 230 231 232 233 233 233 238 240 240 241 240 244 243 245 248 249 255 253 253 257 262 262 264 267 268 267 270 272 277 278 276 279 280 281 283 284 285
217 219 222 225 226 226 230 230 229 228 229 226 230 233 232 235 235 235 239 241 242 243 242 242 241 247 249 249 250 250 255 257 256 257 261 264 269 272 273 272 276 274 277 279 280 281 283 285 286
221 222 224 223 226 228 231 232 230 230 232 232 231 234 230 232 234 235 234 241 241 241 244 244 243 242 244 248 251 251 252 254 258 261 264 266 269 271 272 273 274 274 275 280 278 279 282 284 286
221 223 224 224 225 226 231 230 229 231 232 233 231 234 231 233 234 236 231 239 243 241 244 245 246 244 246 245 247 250 252 254 255 258 260 261 265 268 271 273 276 278 273 279 281 281 283 284 286
220 222 226 226 224 225 228 228 225 230 229 231 233 230 232 232 234 238 235 235 240 245 242 246 253 246 247 246 246 246 251 253 255 257 257 259 262 266 270 274 276 276 278 279 283 276 284 285 285
220 225 225 227 227 225 226 226 228 231 231 231 234 234 234 235 235 237 239 236 239 244 244 245 247 246 247 248 250 252 258 251 253 256 258 261 263 264 265 268 273 275 278 277 280 282 281 283 284
222 223 227 227 232 226 224 228 230 230 231 232 232 234 236 237 238 239 240 239 239 243 245 246 246 247 249 251 253 251 251 254 261 263 254 258 262 263 265 267 268 270 279 275 279 281 281 282 284
226 226 229 229 230 231 225 226 229 233 232 234 233 234 235 236 239 240 241 241 242 243 245 247 247 248 246 249 250 255 256 254 253 253 258 258 257 266 262 264 267 268 270 272 274 276 279 279 281
229 228 229 227 232 234 232 228 230 232 236 236 235 235 236 236 238 241 242 241 241 244 246 247 247 248 249 250 250 253 255 257 259 260 263 266 271 272 270 275 271 267 269 275 274 278 275 277 280